| time (UTC) | temp C | wind direction | speed KPH | gust KPH | rain 1hr cm | rain 24hr cm | rain mn cm | humidity % | barometer mb |
| 20260831172527 | 27 | 190 | 0.0 | 8.0 | 0.00 | 0.15 | 0.08 | 63 | 1016.7 |
| 20260831172026 | 27 | 190 | 3.2 | 8.0 | 0.00 | 0.15 | 0.08 | 63 | 1016.8 |
| 20260831171605 | 27 | 0 | 0.0 | 8.0 | 0.00 | 0.13 | 0.08 | 63 | 1015.5 |
| 20260831171539 | 27 | 190 | 0.0 | 8.0 | 0.00 | 0.15 | 0.08 | 64 | 1016.8 |
| 20260831171024 | 27 | 190 | 1.6 | 8.0 | 0.00 | 0.15 | 0.08 | 65 | 1016.8 |
| 20260831170524 | 27 | 190 | 1.6 | 8.0 | 0.00 | 0.15 | 0.08 | 67 | 1016.8 |
| 20260831170103 | 26 | 0 | 1.6 | 6.4 | 0.00 | 0.13 | 0.08 | 67 | 1015.6 |
| 20260831170054 | 26 | 190 | 1.6 | 6.4 | 0.00 | 0.15 | 0.08 | 67 | 1016.9 |
| 20260831165522 | 26 | 190 | 0.0 | 6.4 | 0.00 | 0.15 | 0.08 | 68 | 1017.0 |
| 20260831165020 | 26 | 190 | 0.0 | 8.0 | 0.00 | 0.15 | 0.08 | 68 | 1017.0 |
| 20260831164602 | 26 | 190 | 3.2 | 9.7 | 0.00 | 0.13 | 0.08 | 67 | 1015.8 |
| 20260831164524 | 26 | 190 | 0.0 | 8.0 | 0.00 | 0.15 | 0.08 | 68 | 1017.1 |
| 20260831164022 | 26 | 190 | 4.8 | 9.7 | 0.00 | 0.15 | 0.08 | 69 | 1017.1 |
| 20260831163520 | 26 | 190 | 3.2 | 9.7 | 0.00 | 0.15 | 0.08 | 69 | 1017.2 |
| 20260831163103 | 26 | 190 | 3.2 | 8.0 | 0.00 | 0.13 | 0.08 | 69 | 1015.8 |
| 20260831163019 | 26 | 190 | 3.2 | 9.7 | 0.00 | 0.15 | 0.08 | 70 | 1017.2 |
| 20260831162521 | 26 | 190 | 3.2 | 8.0 | 0.00 | 0.15 | 0.08 | 67 | 1017.2 |
| 20260831162018 | 26 | 190 | 0.0 | 6.4 | 0.00 | 0.15 | 0.08 | 68 | 1017.3 |
| 20260831161611 | 26 | 0 | 1.6 | 6.4 | 0.00 | 0.13 | 0.08 | 68 | 1015.9 |
| 20260831161518 | 26 | 190 | 0.0 | 6.4 | 0.00 | 0.15 | 0.08 | 69 | 1017.3 |
| 20260831161017 | 26 | 190 | 1.6 | 6.4 | 0.00 | 0.15 | 0.08 | 68 | 1017.4 |
| 20260831160517 | 26 | 190 | 0.0 | 3.2 | 0.00 | 0.15 | 0.08 | 68 | 1017.4 |
| 20260831160109 | 26 | 0 | 0.0 | 0.0 | 0.00 | 0.13 | 0.08 | 67 | 1016.0 |
| 20260831160028 | 26 | 190 | 0.0 | 0.0 | 0.00 | 0.15 | 0.08 | 70 | 1017.5 |
| 20260831155517 | 25 | 190 | 0.0 | 0.0 | 0.00 | 0.15 | 0.08 | 69 | 1017.6 |
| 20260831155014 | 25 | 190 | 0.0 | 0.0 | 0.00 | 0.15 | 0.08 | 70 | 1017.8 |
| 20260831154631 | 25 | 0 | 0.0 | 4.8 | 0.00 | 0.13 | 0.08 | 68 | 1016.2 |
| 20260831154513 | 25 | 190 | 0.0 | 4.8 | 0.00 | 0.15 | 0.08 | 69 | 1017.8 |
| 20260831154013 | 25 | 190 | 1.6 | 4.8 | 0.00 | 0.15 | 0.08 | 69 | 1017.8 |
| 20260831153510 | 25 | 190 | 0.0 | 6.4 | 0.00 | 0.15 | 0.08 | 69 | 1017.8 |
| 20260831153111 | 25 | 0 | 3.2 | 6.4 | 0.00 | 0.13 | 0.08 | 70 | 1016.3 |
| 20260831153011 | 25 | 190 | 1.6 | 6.4 | 0.00 | 0.15 | 0.08 | 69 | 1017.8 |
| 20260831152509 | 25 | 190 | 0.0 | 3.2 | 0.00 | 0.15 | 0.08 | 71 | 1017.8 |
| 20260831152011 | 25 | 190 | 0.0 | 4.8 | 0.00 | 0.15 | 0.08 | 74 | 1017.9 |
| 20260831151601 | 24 | 0 | 1.6 | 4.8 | 0.00 | 0.13 | 0.08 | 74 | 1016.2 |
| 20260831151510 | 24 | 190 | 0.0 | 4.8 | 0.00 | 0.15 | 0.08 | 74 | 1018.0 |
| 20260831151007 | 24 | 190 | 0.0 | 4.8 | 0.00 | 0.15 | 0.08 | 75 | 1018.0 |
| 20260831150505 | 23 | 190 | 1.6 | 4.8 | 0.00 | 0.15 | 0.08 | 74 | 1018.0 |
| 20260831150113 | 23 | 0 | 0.0 | 4.8 | 0.00 | 0.13 | 0.08 | 75 | 1016.2 |
| 20260831150004 | 23 | 190 | 0.0 | 4.8 | 0.00 | 0.15 | 0.08 | 75 | 1018.1 |
| 20260831145502 | 23 | 190 | 0.0 | 0.0 | 0.00 | 0.15 | 0.08 | 76 | 1018.0 |
| 20260831145003 | 23 | 190 | 0.0 | 3.2 | 0.00 | 0.15 | 0.08 | 76 | 1018.0 |
| 20260831144607 | 23 | 0 | 0.0 | 3.2 | 0.00 | 0.13 | 0.08 | 77 | 1016.1 |
| 20260831144600 | 23 | 190 | 0.0 | 3.2 | 0.00 | 0.15 | 0.08 | 77 | 1018.0 |
| 20260831144059 | 23 | 190 | 0.0 | 0.0 | 0.00 | 0.15 | 0.08 | 79 | 1017.9 |
| 20260831143558 | 23 | 190 | 0.0 | 0.0 | 0.00 | 0.15 | 0.08 | 80 | 1017.8 |
| 20260831143101 | 22 | 0 | 0.0 | 0.0 | 0.00 | 0.13 | 0.08 | 81 | 1016.0 |
| 20260831143058 | 22 | 190 | 0.0 | 0.0 | 0.00 | 0.15 | 0.08 | 81 | 1017.8 |
| 20260831142601 | 22 | 190 | 0.0 | 3.2 | 0.00 | 0.15 | 0.08 | 81 | 1017.9 |
| 20260831142057 | 22 | 190 | 0.0 | 3.2 | 0.00 | 0.15 | 0.08 | 83 | 1017.8 |
| 20260831141610 | 22 | 0 | 0.0 | 0.0 | 0.00 | 0.13 | 0.08 | 83 | 1016.0 |
| 20260831141559 | 22 | 190 | 0.0 | 1.6 | 0.00 | 0.15 | 0.08 | 84 | 1017.8 |
| 20260831141057 | 21 | 190 | 0.0 | 0.0 | 0.00 | 0.15 | 0.08 | 86 | 1017.8 |
| 20260831140556 | 21 | 190 | 0.0 | 0.0 | 0.00 | 0.15 | 0.08 | 87 | 1017.7 |
| 20260831140106 | 21 | 0 | 0.0 | 0.0 | 0.00 | 0.13 | 0.08 | 88 | 1015.8 |
| 20260831140057 | 21 | 190 | 0.0 | 0.0 | 0.00 | 0.15 | 0.08 | 88 | 1017.7 |
| 20260831135556 | 21 | 190 | 0.0 | 0.0 | 0.00 | 0.15 | 0.08 | 89 | 1017.7 |
| 20260831135056 | 20 | 190 | 0.0 | 3.2 | 0.00 | 0.15 | 0.08 | 90 | 1017.6 |
| 20260831134607 | 20 | 0 | 0.0 | 3.2 | 0.00 | 0.13 | 0.08 | 89 | 1015.7 |
| 20260831134556 | 20 | 190 | 0.0 | 3.2 | 0.00 | 0.15 | 0.08 | 90 | 1017.7 |
| 20260831134056 | 20 | 190 | 0.0 | 3.2 | 0.00 | 0.15 | 0.08 | 90 | 1017.7 |
| 20260831133553 | 20 | 190 | 0.0 | 3.2 | 0.00 | 0.15 | 0.08 | 90 | 1017.5 |
| 20260831133103 | 20 | 190 | 0.0 | 4.8 | 0.00 | 0.13 | 0.08 | 90 | 1015.6 |
| 20260831133056 | 20 | 190 | 0.0 | 3.2 | 0.00 | 0.15 | 0.08 | 91 | 1017.5 |
| 20260831132556 | 20 | 190 | 0.0 | 4.8 | 0.00 | 0.15 | 0.08 | 92 | 1017.3 |
| 20260831132057 | 20 | 190 | 1.6 | 4.8 | 0.00 | 0.15 | 0.08 | 91 | 1017.3 |
| 20260831131610 | 20 | 0 | 1.6 | 4.8 | 0.00 | 0.13 | 0.08 | 91 | 1015.3 |
| 20260831131552 | 20 | 190 | 0.0 | 4.8 | 0.00 | 0.15 | 0.08 | 91 | 1017.1 |
| 20260831131050 | 20 | 190 | 0.0 | 4.8 | 0.00 | 0.15 | 0.08 | 91 | 1017.1 |
| 20260831130553 | 20 | 190 | 0.0 | 1.6 | 0.00 | 0.15 | 0.08 | 91 | 1016.9 |
| 20260831130109 | 20 | 0 | 0.0 | 0.0 | 0.00 | 0.13 | 0.08 | 90 | 1015.0 |
| 20260831130050 | 20 | 190 | 0.0 | 0.0 | 0.00 | 0.15 | 0.08 | 91 | 1016.8 |
| 20260831125549 | 20 | 190 | 0.0 | 0.0 | 0.00 | 0.15 | 0.08 | 91 | 1016.8 |
| 20260831125049 | 20 | 190 | 0.0 | 0.0 | 0.00 | 0.15 | 0.08 | 91 | 1016.8 |
| 20260831124603 | 20 | 0 | 0.0 | 0.0 | 0.00 | 0.13 | 0.08 | 91 | 1015.0 |
| 20260831124548 | 20 | 190 | 0.0 | 0.0 | 0.00 | 0.15 | 0.08 | 91 | 1016.8 |
| 20260831124048 | 20 | 190 | 0.0 | 0.0 | 0.00 | 0.15 | 0.08 | 91 | 1016.8 |
| 20260831123546 | 20 | 190 | 0.0 | 1.6 | 0.00 | 0.15 | 0.08 | 92 | 1016.9 |
| 20260831123102 | 20 | 0 | 0.0 | 1.6 | 0.00 | 0.13 | 0.08 | 91 | 1015.0 |
| 20260831123047 | 20 | 190 | 0.0 | 1.6 | 0.00 | 0.15 | 0.08 | 92 | 1016.8 |
| 20260831122545 | 20 | 190 | 0.0 | 0.0 | 0.00 | 0.15 | 0.08 | 91 | 1016.7 |
| 20260831122046 | 20 | 190 | 0.0 | 0.0 | 0.00 | 0.15 | 0.08 | 91 | 1016.8 |
| 20260831121608 | 20 | 0 | 0.0 | 0.0 | 0.00 | 0.13 | 0.08 | 90 | 1015.0 |
| 20260831121545 | 20 | 190 | 0.0 | 0.0 | 0.00 | 0.15 | 0.08 | 91 | 1016.8 |
| 20260831121049 | 20 | 190 | 0.0 | 0.0 | 0.00 | 0.15 | 0.08 | 91 | 1016.7 |
| 20260831120543 | 20 | 190 | 0.0 | 0.0 | 0.00 | 0.15 | 0.08 | 90 | 1016.6 |
| 20260831120149 | 20 | 0 | 0.0 | 0.0 | 0.00 | 0.13 | 0.08 | 90 | 1014.7 |
| 20260831120043 | 20 | 190 | 0.0 | 0.0 | 0.00 | 0.15 | 0.08 | 91 | 1016.5 |
| 20260831115541 | 20 | 190 | 0.0 | 0.0 | 0.00 | 0.15 | 0.08 | 90 | 1016.4 |
| 20260831115041 | 20 | 190 | 0.0 | 0.0 | 0.00 | 0.15 | 0.08 | 90 | 1016.4 |
| 20260831114610 | 20 | 0 | 0.0 | 0.0 | 0.00 | 0.13 | 0.08 | 89 | 1014.5 |
| 20260831114541 | 20 | 190 | 0.0 | 0.0 | 0.00 | 0.15 | 0.08 | 90 | 1016.3 |
| 20260831114041 | 20 | 190 | 0.0 | 0.0 | 0.00 | 0.15 | 0.08 | 89 | 1016.3 |
| 20260831113541 | 21 | 190 | 0.0 | 0.0 | 0.00 | 0.15 | 0.08 | 89 | 1016.2 |
| 20260831113103 | 21 | 0 | 0.0 | 0.0 | 0.00 | 0.13 | 0.08 | 89 | 1014.5 |
| 20260831113043 | 21 | 190 | 0.0 | 0.0 | 0.00 | 0.15 | 0.08 | 89 | 1016.2 |
| 20260831112540 | 21 | 190 | 0.0 | 0.0 | 0.00 | 0.15 | 0.08 | 89 | 1016.2 |
| 20260831112039 | 21 | 190 | 0.0 | 0.0 | 0.00 | 0.15 | 0.08 | 89 | 1016.1 |
| 20260831111606 | 21 | 0 | 0.0 | 0.0 | 0.00 | 0.13 | 0.08 | 89 | 1014.5 |
| 20260831111540 | 21 | 190 | 0.0 | 0.0 | 0.00 | 0.15 | 0.08 | 89 | 1016.1 |
| 20260831111039 | 21 | 190 | 0.0 | 0.0 | 0.00 | 0.15 | 0.08 | 90 | 1016.1 |
| 20260831110542 | 21 | 190 | 0.0 | 0.0 | 0.00 | 0.15 | 0.08 | 89 | 1016.1 |
| 20260831110111 | 21 | 0 | 0.0 | 0.0 | 0.00 | 0.13 | 0.08 | 88 | 1014.5 |
| 20260831110039 | 21 | 190 | 0.0 | 0.0 | 0.00 | 0.15 | 0.08 | 89 | 1016.1 |
| 20260831105537 | 21 | 190 | 0.0 | 0.0 | 0.00 | 0.15 | 0.08 | 89 | 1016.2 |
| 20260831105039 | 21 | 190 | 0.0 | 1.6 | 0.00 | 0.15 | 0.08 | 89 | 1016.2 |
| 20260831104607 | 21 | 0 | 0.0 | 1.6 | 0.00 | 0.13 | 0.08 | 89 | 1014.5 |
| 20260831104543 | 21 | 190 | 0.0 | 1.6 | 0.00 | 0.15 | 0.08 | 90 | 1016.2 |
| 20260831104036 | 21 | 190 | 0.0 | 1.6 | 0.00 | 0.15 | 0.08 | 90 | 1016.2 |
| 20260831103539 | 21 | 190 | 0.0 | 0.0 | 0.00 | 0.15 | 0.08 | 88 | 1016.1 |
| 20260831103122 | 21 | 0 | 0.0 | 0.0 | 0.00 | 0.13 | 0.08 | 87 | 1014.3 |
| 20260831103055 | 21 | 190 | 0.0 | 0.0 | 0.00 | 0.15 | 0.08 | 87 | 1016.0 |
| 20260831102536 | 21 | 190 | 0.0 | 0.0 | 0.00 | 0.15 | 0.08 | 86 | 1016.0 |
| 20260831102036 | 21 | 190 | 0.0 | 0.0 | 0.00 | 0.15 | 0.08 | 86 | 1016.0 |
| 20260831101611 | 21 | 0 | 0.0 | 0.0 | 0.00 | 0.13 | 0.08 | 86 | 1014.3 |
| 20260831101539 | 21 | 190 | 0.0 | 0.0 | 0.00 | 0.15 | 0.08 | 86 | 1016.1 |
| 20260831101037 | 21 | 190 | 0.0 | 0.0 | 0.00 | 0.15 | 0.08 | 87 | 1016.2 |
| 20260831100537 | 21 | 190 | 0.0 | 0.0 | 0.00 | 0.15 | 0.08 | 87 | 1016.3 |
| 20260831100120 | 21 | 0 | 0.0 | 0.0 | 0.00 | 0.13 | 0.08 | 87 | 1014.7 |
| 20260831100039 | 21 | 190 | 0.0 | 0.0 | 0.00 | 0.15 | 0.08 | 88 | 1016.4 |
| 20260831095535 | 21 | 190 | 0.0 | 0.0 | 0.00 | 0.15 | 0.08 | 89 | 1016.5 |
| 20260831095035 | 21 | 190 | 0.0 | 0.0 | 0.00 | 0.15 | 0.08 | 89 | 1016.5 |
| 20260831094610 | 21 | 0 | 0.0 | 0.0 | 0.00 | 0.13 | 0.08 | 89 | 1014.9 |
| 20260831094534 | 21 | 190 | 0.0 | 0.0 | 0.00 | 0.15 | 0.08 | 89 | 1016.5 |
| 20260831094034 | 21 | 190 | 0.0 | 0.0 | 0.00 | 0.15 | 0.08 | 89 | 1016.5 |
| 20260831093533 | 21 | 190 | 0.0 | 0.0 | 0.00 | 0.15 | 0.08 | 88 | 1016.5 |
| 20260831093111 | 21 | 0 | 0.0 | 0.0 | 0.00 | 0.13 | 0.08 | 89 | 1014.9 |
| 20260831093034 | 21 | 190 | 0.0 | 0.0 | 0.00 | 0.15 | 0.08 | 89 | 1016.6 |
| 20260831092532 | 21 | 190 | 0.0 | 0.0 | 0.00 | 0.15 | 0.08 | 88 | 1016.5 |
| 20260831092032 | 21 | 190 | 0.0 | 0.0 | 0.00 | 0.15 | 0.08 | 89 | 1016.5 |
| 20260831091611 | 21 | 0 | 0.0 | 0.0 | 0.00 | 0.13 | 0.08 | 88 | 1014.8 |
| 20260831091532 | 21 | 190 | 0.0 | 0.0 | 0.00 | 0.15 | 0.08 | 89 | 1016.4 |
| 20260831091032 | 21 | 190 | 0.0 | 0.0 | 0.00 | 0.15 | 0.08 | 89 | 1016.4 |
| 20260831090532 | 21 | 190 | 0.0 | 3.2 | 0.00 | 0.15 | 0.08 | 88 | 1016.3 |
| 20260831090113 | 21 | 0 | 0.0 | 3.2 | 0.00 | 0.13 | 0.08 | 86 | 1014.7 |
| 20260831090032 | 21 | 190 | 0.0 | 3.2 | 0.00 | 0.15 | 0.08 | 87 | 1016.3 |
| 20260831085532 | 21 | 190 | 0.0 | 3.2 | 0.00 | 0.15 | 0.08 | 86 | 1016.3 |
| 20260831085034 | 21 | 190 | 0.0 | 3.2 | 0.00 | 0.15 | 0.08 | 88 | 1016.3 |
| 20260831084608 | 21 | 0 | 0.0 | 0.0 | 0.00 | 0.13 | 0.08 | 87 | 1014.5 |
| 20260831084532 | 21 | 190 | 0.0 | 0.0 | 0.00 | 0.15 | 0.08 | 88 | 1016.2 |
| 20260831084030 | 21 | 190 | 0.0 | 0.0 | 0.00 | 0.15 | 0.08 | 89 | 1016.1 |
| 20260831083530 | 21 | 190 | 0.0 | 0.0 | 0.00 | 0.15 | 0.08 | 88 | 1016.0 |
| 20260831083106 | 21 | 0 | 0.0 | 0.0 | 0.00 | 0.13 | 0.08 | 88 | 1014.4 |
| 20260831083031 | 21 | 190 | 0.0 | 0.0 | 0.00 | 0.15 | 0.08 | 89 | 1016.0 |
| 20260831082530 | 21 | 190 | 0.0 | 0.0 | 0.00 | 0.15 | 0.08 | 88 | 1015.9 |
| 20260831082030 | 21 | 190 | 0.0 | 0.0 | 0.00 | 0.15 | 0.08 | 88 | 1016.0 |
| 20260831081610 | 21 | 0 | 0.0 | 0.0 | 0.00 | 0.13 | 0.08 | 88 | 1014.5 |
| 20260831081530 | 21 | 190 | 0.0 | 0.0 | 0.00 | 0.15 | 0.08 | 89 | 1016.1 |
| 20260831081032 | 21 | 190 | 0.0 | 0.0 | 0.00 | 0.15 | 0.08 | 88 | 1016.0 |
| 20260831080530 | 21 | 190 | 0.0 | 1.6 | 0.00 | 0.15 | 0.08 | 88 | 1015.9 |
| 20260831080107 | 21 | 0 | 0.0 | 1.6 | 0.00 | 0.13 | 0.08 | 87 | 1014.4 |
| 20260831080047 | 21 | 190 | 0.0 | 1.6 | 0.00 | 0.15 | 0.08 | 87 | 1016.0 |
| 20260831075529 | 21 | 190 | 0.0 | 1.6 | 0.00 | 0.15 | 0.08 | 88 | 1016.0 |
| 20260831075029 | 21 | 190 | 0.0 | 1.6 | 0.00 | 0.15 | 0.08 | 87 | 1015.9 |
| 20260831074608 | 21 | 0 | 0.0 | 1.6 | 0.00 | 0.13 | 0.08 | 86 | 1014.5 |
| 20260831074528 | 21 | 190 | 0.0 | 1.6 | 0.00 | 0.15 | 0.08 | 87 | 1016.0 |
| 20260831074028 | 21 | 190 | 0.0 | 1.6 | 0.00 | 0.15 | 0.08 | 87 | 1016.1 |
| 20260831073526 | 21 | 190 | 0.0 | 0.0 | 0.00 | 0.15 | 0.08 | 86 | 1016.1 |
| 20260831073111 | 21 | 0 | 0.0 | 1.6 | 0.00 | 0.13 | 0.08 | 85 | 1014.4 |
| 20260831073031 | 21 | 190 | 0.0 | 0.0 | 0.00 | 0.15 | 0.08 | 86 | 1016.0 |
| 20260831072524 | 21 | 190 | 0.0 | 1.6 | 0.00 | 0.15 | 0.08 | 83 | 1015.9 |
| 20260831072030 | 21 | 190 | 0.0 | 3.2 | 0.03 | 0.15 | 0.08 | 86 | 1015.8 |
| 20260831071618 | 21 | 190 | 0.0 | 3.2 | 0.00 | 0.13 | 0.08 | 87 | 1014.4 |
| 20260831071523 | 21 | 190 | 0.0 | 3.2 | 0.03 | 0.15 | 0.08 | 89 | 1015.9 |
| 20260831071023 | 21 | 190 | 0.0 | 0.0 | 0.05 | 0.15 | 0.08 | 89 | 1016.0 |
| 20260831070524 | 21 | 190 | 0.0 | 0.0 | 0.05 | 0.15 | 0.08 | 89 | 1016.0 |
| 20260831070111 | 21 | 0 | 0.0 | 0.0 | 0.05 | 0.13 | 0.08 | 87 | 1014.5 |
| 20260831070023 | 21 | 190 | 0.0 | 0.0 | 0.05 | 0.15 | 0.08 | 88 | 1016.2 |
| 20260831065521 | 21 | 190 | 0.0 | 0.0 | 0.13 | 0.15 | 0.08 | 87 | 1016.2 |
| 20260831065022 | 21 | 190 | 0.0 | 0.0 | 0.15 | 0.15 | 0.08 | 87 | 1016.1 |
| 20260831064604 | 22 | 0 | 0.0 | 0.0 | 0.13 | 0.13 | 0.08 | 87 | 1014.4 |
| 20260831064521 | 22 | 190 | 0.0 | 0.0 | 0.15 | 0.15 | 0.08 | 87 | 1016.1 |
| 20260831064020 | 21 | 190 | 0.0 | 1.6 | 0.15 | 0.15 | 0.08 | 87 | 1016.0 |
| 20260831063520 | 21 | 190 | 0.0 | 3.2 | 0.15 | 0.15 | 0.08 | 87 | 1016.1 |
| 20260831063104 | 21 | 190 | 0.0 | 1.6 | 0.13 | 0.13 | 0.08 | 86 | 1014.5 |
| 20260831063021 | 21 | 190 | 0.0 | 1.6 | 0.15 | 0.15 | 0.08 | 86 | 1016.1 |
| 20260831062519 | 22 | 190 | 0.0 | 1.6 | 0.15 | 0.15 | 0.08 | 86 | 1016.2 |
| 20260831062020 | 22 | 190 | 0.0 | 0.0 | 0.13 | 0.13 | 0.05 | 85 | 1016.2 |
| 20260831061609 | 22 | 0 | 0.0 | 4.8 | 0.10 | 0.10 | 0.05 | 84 | 1014.5 |
| 20260831061516 | 22 | 190 | 0.0 | 3.2 | 0.13 | 0.13 | 0.05 | 84 | 1016.2 |
| 20260831061015 | 22 | 190 | 0.0 | 6.4 | 0.10 | 0.10 | 0.05 | 84 | 1016.3 |
| 20260831060514 | 22 | 190 | 1.6 | 9.7 | 0.10 | 0.10 | 0.05 | 82 | 1016.4 |
| 20260831060113 | 23 | 190 | 4.8 | 9.7 | 0.08 | 0.08 | 0.00 | 80 | 1014.9 |
| 20260831060012 | 23 | 190 | 3.2 | 9.7 | 0.05 | 0.05 | 0.00 | 79 | 1016.6 |
| 20260831055511 | 23 | 190 | 3.2 | 9.7 | 0.03 | 0.03 | 0.03 | 75 | 1016.6 |
| 20260831055011 | 24 | 190 | 1.6 | 11.3 | 0.00 | 0.00 | 0.00 | 74 | 1016.7 |
| 20260831054604 | 25 | 0 | 1.6 | 11.3 | 0.00 | 0.00 | 0.00 | 69 | 1015.1 |
| 20260831054511 | 25 | 190 | 1.6 | 11.3 | 0.00 | 0.00 | 0.00 | 69 | 1016.6 |
| 20260831054011 | 26 | 190 | 1.6 | 11.3 | 0.00 | 0.00 | 0.00 | 65 | 1016.6 |
| 20260831053511 | 26 | 190 | 1.6 | 8.0 | 0.00 | 0.00 | 0.00 | 63 | 1016.4 |
| 20260831053151 | 26 | 190 | 0.0 | 6.4 | 0.00 | 0.00 | 0.00 | 63 | 1014.7 |
| 20260831053014 | 26 | 190 | 0.0 | 6.4 | 0.00 | 0.00 | 0.00 | 63 | 1016.4 |
| 20260831052510 | 26 | 190 | 0.0 | 6.4 | 0.00 | 0.00 | 0.00 | 63 | 1016.3 |
| 20260831052010 | 26 | 190 | 1.6 | 6.4 | 0.00 | 0.00 | 0.00 | 62 | 1016.3 |
| 20260831051607 | 26 | 190 | 1.6 | 6.4 | 0.00 | 0.00 | 0.00 | 61 | 1014.7 |
| 20260831051512 | 26 | 190 | 1.6 | 6.4 | 0.00 | 0.00 | 0.00 | 62 | 1016.4 |
| 20260831051009 | 26 | 190 | 0.0 | 3.2 | 0.00 | 0.00 | 0.00 | 62 | 1016.5 |
| 20260831050509 | 26 | 190 | 0.0 | 3.2 | 0.00 | 0.00 | 0.00 | 62 | 1016.3 |
| 20260831050127 | 26 | 0 | 0.0 | 8.0 | 0.00 | 0.00 | 0.00 | 62 | 1014.5 |
| 20260831050012 | 26 | 190 | 0.0 | 4.8 | 0.00 | 0.00 | 0.00 | 63 | 1016.2 |
| 20260831045509 | 26 | 190 | 1.6 | 8.0 | 0.00 | 0.00 | 0.00 | 62 | 1016.1 |
| 20260831045008 | 26 | 190 | 0.0 | 8.0 | 0.00 | 0.00 | 0.00 | 62 | 1016.1 |
| 20260831044610 | 26 | 0 | 0.0 | 0.0 | 0.00 | 0.00 | 0.00 | 63 | 1014.4 |
| 20260831044513 | 26 | 190 | 0.0 | 0.0 | 0.00 | 0.00 | 0.00 | 63 | 1016.1 |
| 20260831044009 | 25 | 190 | 0.0 | 0.0 | 0.00 | 0.00 | 0.00 | 65 | 1016.1 |
| 20260831043511 | 25 | 190 | 0.0 | 3.2 | 0.00 | 0.00 | 0.00 | 65 | 1016.0 |
| 20260831043108 | 26 | 0 | 0.0 | 3.2 | 0.00 | 0.00 | 0.00 | 64 | 1014.1 |
| 20260831043007 | 26 | 190 | 0.0 | 3.2 | 0.00 | 0.00 | 0.00 | 65 | 1015.9 |
| 20260831042511 | 26 | 190 | 0.0 | 0.0 | 0.00 | 0.00 | 0.00 | 65 | 1015.9 |
| 20260831042008 | 26 | 190 | 0.0 | 3.2 | 0.00 | 0.00 | 0.00 | 65 | 1015.8 |
| 20260831041619 | 26 | 0 | 0.0 | 4.8 | 0.00 | 0.00 | 0.00 | 64 | 1014.0 |
| 20260831041510 | 26 | 190 | 0.0 | 3.2 | 0.00 | 0.00 | 0.00 | 64 | 1015.8 |
| 20260831041007 | 26 | 190 | 0.0 | 4.8 | 0.00 | 0.00 | 0.00 | 64 | 1015.7 |
| 20260831040508 | 26 | 190 | 1.6 | 4.8 | 0.00 | 0.00 | 0.00 | 63 | 1015.5 |
| 20260831040008 | 26 | 190 | 0.0 | 4.8 | 0.00 | 0.00 | 0.00 | 62 | 1015.5 |
| 20260831035507 | 26 | 190 | 0.0 | 0.0 | 0.00 | 0.00 | 0.00 | 62 | 1015.5 |
| 20260831035007 | 26 | 190 | 0.0 | 0.0 | 0.00 | 0.00 | 0.00 | 62 | 1015.3 |
| 20260831034612 | 26 | 0 | 0.0 | 0.0 | 0.00 | 0.00 | 0.00 | 62 | 1013.6 |
| 20260831034505 | 26 | 190 | 0.0 | 0.0 | 0.00 | 0.00 | 0.00 | 62 | 1015.3 |
| 20260831034006 | 26 | 190 | 0.0 | 0.0 | 0.00 | 0.00 | 0.00 | 61 | 1015.3 |
| 20260831033505 | 26 | 190 | 0.0 | 0.0 | 0.00 | 0.00 | 0.00 | 61 | 1015.3 |
| 20260831033112 | 27 | 0 | 0.0 | 0.0 | 0.00 | 0.00 | 0.00 | 60 | 1013.4 |
| 20260831033008 | 27 | 190 | 0.0 | 0.0 | 0.00 | 0.00 | 0.00 | 60 | 1015.2 |
| 20260831032506 | 27 | 190 | 0.0 | 0.0 | 0.00 | 0.00 | 0.00 | 60 | 1015.2 |
| 20260831032007 | 27 | 190 | 0.0 | 0.0 | 0.00 | 0.00 | 0.00 | 59 | 1015.1 |
| 20260831031621 | 27 | 0 | 0.0 | 0.0 | 0.00 | 0.00 | 0.00 | 59 | 1013.2 |
| 20260831031506 | 27 | 190 | 0.0 | 0.0 | 0.00 | 0.00 | 0.00 | 59 | 1014.9 |
| 20260831031004 | 27 | 190 | 0.0 | 0.0 | 0.00 | 0.00 | 0.00 | 59 | 1014.9 |
| 20260831030504 | 27 | 190 | 0.0 | 0.0 | 0.00 | 0.00 | 0.00 | 58 | 1014.8 |
| 20260831030103 | 27 | 0 | 0.0 | 4.8 | 0.00 | 0.00 | 0.00 | 57 | 1012.9 |
| 20260831030004 | 27 | 190 | 0.0 | 4.8 | 0.00 | 0.00 | 0.00 | 58 | 1014.7 |
| 20260831025504 | 27 | 190 | 0.0 | 4.8 | 0.00 | 0.00 | 0.00 | 58 | 1014.6 |
| 20260831025004 | 27 | 190 | 0.0 | 3.2 | 0.00 | 0.00 | 0.00 | 58 | 1014.5 |
| 20260831024611 | 27 | 190 | 0.0 | 4.8 | 0.00 | 0.00 | 0.00 | 57 | 1012.6 |
| 20260831024503 | 27 | 190 | 0.0 | 4.8 | 0.00 | 0.00 | 0.00 | 58 | 1014.4 |
| 20260831024004 | 27 | 190 | 0.0 | 4.8 | 0.00 | 0.00 | 0.00 | 57 | 1014.2 |
| 20260831023502 | 27 | 190 | 0.0 | 8.0 | 0.00 | 0.00 | 0.00 | 57 | 1014.2 |
| 20260831023105 | 27 | 0 | 3.2 | 8.0 | 0.00 | 0.00 | 0.00 | 56 | 1012.4 |
| 20260831023002 | 27 | 190 | 4.8 | 8.0 | 0.00 | 0.00 | 0.00 | 57 | 1014.1 |
| 20260831022503 | 27 | 190 | 3.2 | 8.0 | 0.00 | 0.00 | 0.00 | 57 | 1014.0 |
| 20260831022002 | 27 | 190 | 1.6 | 6.4 | 0.00 | 0.00 | 0.00 | 56 | 1014.0 |
| 20260831021609 | 28 | 190 | 3.2 | 6.4 | 0.00 | 0.00 | 0.00 | 55 | 1012.3 |
| 20260831021502 | 28 | 190 | 1.6 | 6.4 | 0.00 | 0.00 | 0.00 | 55 | 1014.0 |
| 20260831021003 | 28 | 190 | 0.0 | 4.8 | 0.00 | 0.00 | 0.00 | 54 | 1014.0 |
| 20260831020502 | 28 | 190 | 0.0 | 4.8 | 0.00 | 0.00 | 0.00 | 54 | 1013.8 |
| 20260831020113 | 28 | 0 | 1.6 | 6.4 | 0.00 | 0.00 | 0.00 | 53 | 1011.9 |
| 20260831020002 | 28 | 190 | 0.0 | 6.4 | 0.00 | 0.00 | 0.00 | 53 | 1013.6 |
| 20260831015503 | 28 | 190 | 1.6 | 6.4 | 0.00 | 0.00 | 0.00 | 54 | 1013.4 |
| 20260831015001 | 28 | 190 | 0.0 | 0.0 | 0.00 | 0.00 | 0.00 | 55 | 1013.2 |
| 20260831014602 | 28 | 0 | 0.0 | 0.0 | 0.00 | 0.00 | 0.00 | 54 | 1011.3 |
| 20260831014501 | 28 | 190 | 0.0 | 0.0 | 0.00 | 0.00 | 0.00 | 55 | 1013.1 |
| 20260831014100 | 28 | 190 | 0.0 | 0.0 | 0.00 | 0.00 | 0.00 | 55 | 1013.0 |
| 20260831014000 | 28 | 190 | 0.0 | 0.0 | 0.00 | 0.00 | 0.00 | 55 | 1013.0 |
| 20260831013600 | 28 | 190 | 0.0 | 1.6 | 0.00 | 0.00 | 0.00 | 54 | 1013.0 |
| 20260831013106 | 28 | 0 | 0.0 | 1.6 | 0.00 | 0.00 | 0.00 | 53 | 1010.9 |
| 20260831013101 | 28 | 190 | 0.0 | 1.6 | 0.00 | 0.00 | 0.00 | 54 | 1012.8 |
| 20260831012601 | 28 | 190 | 0.0 | 0.0 | 0.00 | 0.00 | 0.00 | 53 | 1012.6 |
| 20260831012100 | 28 | 190 | 0.0 | 0.0 | 0.00 | 0.00 | 0.00 | 52 | 1012.4 |
| 20260831011608 | 28 | 190 | 0.0 | 0.0 | 0.00 | 0.00 | 0.00 | 51 | 1012.3 |
| 20260831011601 | 28 | 0 | 0.0 | 0.0 | 0.00 | 0.00 | 0.00 | 50 | 1010.3 |
| 20260831011059 | 28 | 190 | 0.0 | 0.0 | 0.00 | 0.00 | 0.00 | 49 | 1012.1 |
| 20260831010600 | 28 | 190 | 0.0 | 0.0 | 0.00 | 0.00 | 0.00 | 48 | 1012.0 |
| 20260831010107 | 29 | 0 | 0.0 | 0.0 | 0.00 | 0.00 | 0.00 | 45 | 1010.1 |
| 20260831010001 | 29 | 190 | 0.0 | 0.0 | 0.00 | 0.00 | 0.00 | 45 | 1011.9 |
| 20260831005601 | 29 | 190 | 0.0 | 1.6 | 0.00 | 0.00 | 0.00 | 45 | 1011.8 |
| 20260831005058 | 29 | 190 | 0.0 | 6.4 | 0.00 | 0.00 | 0.00 | 44 | 1011.7 |
| 20260831004606 | 30 | 0 | 0.0 | 8.0 | 0.00 | 0.00 | 0.00 | 43 | 1009.8 |
| 20260831004558 | 30 | 190 | 0.0 | 6.4 | 0.00 | 0.00 | 0.00 | 44 | 1011.5 |
| 20260831004058 | 30 | 190 | 0.0 | 8.0 | 0.00 | 0.00 | 0.00 | 42 | 1011.4 |
| 20260831003559 | 30 | 190 | 1.6 | 11.3 | 0.00 | 0.00 | 0.00 | 41 | 1011.3 |
| 20260831003103 | 30 | 190 | 4.8 | 12.9 | 0.00 | 0.00 | 0.00 | 40 | 1009.5 |
| 20260831003059 | 30 | 190 | 4.8 | 12.9 | 0.00 | 0.00 | 0.00 | 41 | 1011.2 |
| 20260831002557 | 30 | 190 | 6.4 | 12.9 | 0.00 | 0.00 | 0.00 | 40 | 1011.1 |
| 20260831002059 | 31 | 190 | 3.2 | 9.7 | 0.00 | 0.00 | 0.00 | 40 | 1011.1 |
| 20260831001600 | 31 | 190 | 3.2 | 17.7 | 0.00 | 0.00 | 0.00 | 40 | 1009.3 |
| 20260831001557 | 31 | 190 | 1.6 | 17.7 | 0.00 | 0.00 | 0.00 | 40 | 1011.1 |
| 20260831001057 | 31 | 190 | 9.7 | 17.7 | 0.00 | 0.00 | 0.00 | 39 | 1011.0 |
| 20260831000557 | 31 | 190 | 3.2 | 14.5 | 0.00 | 0.00 | 0.00 | 40 | 1011.0 |
| 20260831000114 | 31 | 190 | 6.4 | 14.5 | 0.00 | 0.00 | 0.00 | 39 | 1009.2 |
| 20260830235556 | 31 | 190 | 6.4 | 14.5 | 0.00 | 0.00 | 0.00 | 39 | 1011.0 |
| 20260830235059 | 31 | 190 | 3.2 | 14.5 | 0.00 | 0.00 | 0.00 | 39 | 1010.8 |
| 20260830234604 | 31 | 190 | 4.8 | 14.5 | 0.00 | 0.00 | 0.00 | 38 | 1009.1 |
| 20260830234601 | 31 | 190 | 1.6 | 14.5 | 0.00 | 0.00 | 0.00 | 39 | 1010.8 |
| 20260830234055 | 32 | 190 | 6.4 | 14.5 | 0.00 | 0.00 | 0.00 | 38 | 1010.8 |
| 20260830233555 | 32 | 190 | 4.8 | 16.1 | 0.00 | 0.00 | 0.00 | 38 | 1010.7 |
| 20260830233103 | 32 | 190 | 6.4 | 16.1 | 0.00 | 0.00 | 0.00 | 36 | 1009.1 |
| 20260830233055 | 32 | 190 | 4.8 | 16.1 | 0.00 | 0.00 | 0.00 | 37 | 1010.8 |
| 20260830232554 | 32 | 190 | 4.8 | 11.3 | 0.00 | 0.00 | 0.00 | 36 | 1010.8 |
| 20260830232057 | 32 | 190 | 3.2 | 9.7 | 0.00 | 0.00 | 0.00 | 35 | 1010.6 |
| 20260830231610 | 32 | 190 | 3.2 | 11.3 | 0.00 | 0.00 | 0.00 | 35 | 1008.9 |
| 20260830231555 | 32 | 190 | 3.2 | 9.7 | 0.00 | 0.00 | 0.00 | 35 | 1010.6 |
| 20260830231054 | 32 | 190 | 4.8 | 11.3 | 0.00 | 0.00 | 0.00 | 34 | 1010.6 |
| 20260830230554 | 33 | 190 | 3.2 | 8.0 | 0.00 | 0.00 | 0.00 | 35 | 1010.5 |
| 20260830230107 | 33 | 0 | 1.6 | 12.9 | 0.00 | 0.00 | 0.00 | 34 | 1008.8 |
| 20260830230100 | 33 | 190 | 1.6 | 9.7 | 0.00 | 0.00 | 0.00 | 34 | 1010.5 |
| 20260830225554 | 33 | 190 | 1.6 | 12.9 | 0.00 | 0.00 | 0.00 | 34 | 1010.4 |
| 20260830225056 | 33 | 190 | 4.8 | 12.9 | 0.00 | 0.00 | 0.00 | 34 | 1010.4 |
| 20260830224601 | 33 | 190 | 0.0 | 9.7 | 0.00 | 0.00 | 0.00 | 33 | 1008.7 |
| 20260830224553 | 33 | 190 | 1.6 | 9.7 | 0.00 | 0.00 | 0.00 | 34 | 1010.3 |
| 20260830224053 | 33 | 190 | 3.2 | 9.7 | 0.00 | 0.00 | 0.00 | 34 | 1010.4 |
| 20260830223552 | 33 | 190 | 3.2 | 12.9 | 0.00 | 0.00 | 0.00 | 33 | 1010.5 |
| 20260830223102 | 33 | 190 | 6.4 | 12.9 | 0.00 | 0.00 | 0.00 | 34 | 1010.6 |
| 20260830222554 | 33 | 190 | 3.2 | 12.9 | 0.00 | 0.00 | 0.00 | 33 | 1010.6 |
| 20260830222051 | 33 | 190 | 4.8 | 11.3 | 0.00 | 0.00 | 0.00 | 34 | 1010.6 |
| 20260830221607 | 33 | 190 | 6.4 | 12.9 | 0.00 | 0.00 | 0.00 | 33 | 1010.7 |
| 20260830221559 | 33 | 190 | 4.8 | 16.1 | 0.00 | 0.00 | 0.00 | 33 | 1008.9 |
| 20260830221050 | 33 | 190 | 1.6 | 16.1 | 0.00 | 0.00 | 0.00 | 34 | 1010.8 |
| 20260830220551 | 33 | 190 | 4.8 | 16.1 | 0.00 | 0.00 | 0.00 | 33 | 1010.8 |
| 20260830220113 | 33 | 190 | 3.2 | 8.0 | 0.00 | 0.00 | 0.00 | 33 | 1009.2 |
| 20260830220050 | 33 | 190 | 1.6 | 8.0 | 0.00 | 0.00 | 0.00 | 33 | 1010.9 |
| 20260830215549 | 34 | 190 | 1.6 | 9.7 | 0.00 | 0.00 | 0.00 | 33 | 1011.0 |
| 20260830215049 | 34 | 190 | 1.6 | 9.7 | 0.00 | 0.00 | 0.00 | 32 | 1011.0 |
| 20260830214601 | 34 | 0 | 0.0 | 9.7 | 0.00 | 0.00 | 0.00 | 32 | 1009.3 |
| 20260830214547 | 34 | 190 | 0.0 | 8.0 | 0.00 | 0.00 | 0.00 | 32 | 1011.1 |
| 20260830214050 | 34 | 190 | 1.6 | 9.7 | 0.00 | 0.00 | 0.00 | 32 | 1011.2 |
| 20260830213545 | 34 | 190 | 3.2 | 9.7 | 0.00 | 0.00 | 0.00 | 32 | 1011.3 |
| 20260830213103 | 34 | 190 | 4.8 | 9.7 | 0.00 | 0.00 | 0.00 | 30 | 1009.6 |
| 20260830213046 | 34 | 190 | 4.8 | 9.7 | 0.00 | 0.00 | 0.00 | 31 | 1011.4 |
| 20260830212544 | 34 | 190 | 1.6 | 8.0 | 0.00 | 0.00 | 0.00 | 30 | 1011.5 |
| 20260830212043 | 34 | 190 | 3.2 | 8.0 | 0.00 | 0.00 | 0.00 | 31 | 1011.5 |
| 20260830211623 | 33 | 190 | 1.6 | 12.9 | 0.00 | 0.00 | 0.00 | 31 | 1009.7 |
| 20260830211542 | 33 | 190 | 1.6 | 12.9 | 0.00 | 0.00 | 0.00 | 32 | 1011.6 |
| 20260830211041 | 33 | 190 | 4.8 | 12.9 | 0.00 | 0.00 | 0.00 | 31 | 1011.8 |
| 20260830210541 | 33 | 190 | 3.2 | 12.9 | 0.00 | 0.00 | 0.00 | 32 | 1011.9 |
| 20260830210112 | 33 | 0 | 3.2 | 12.9 | 0.00 | 0.00 | 0.00 | 32 | 1010.0 |
| 20260830210039 | 33 | 190 | 3.2 | 12.9 | 0.00 | 0.00 | 0.00 | 32 | 1012.0 |
| 20260830205537 | 33 | 190 | 3.2 | 12.9 | 0.00 | 0.00 | 0.00 | 32 | 1012.1 |
| 20260830205035 | 33 | 190 | 3.2 | 9.7 | 0.00 | 0.00 | 0.00 | 33 | 1012.3 |
| 20260830204604 | 33 | 190 | 3.2 | 11.3 | 0.00 | 0.00 | 0.00 | 34 | 1010.3 |
| 20260830204541 | 33 | 190 | 3.2 | 11.3 | 0.00 | 0.00 | 0.00 | 35 | 1012.3 |
| 20260830204036 | 33 | 190 | 3.2 | 11.3 | 0.00 | 0.00 | 0.00 | 36 | 1012.4 |
| 20260830203532 | 33 | 190 | 4.8 | 11.3 | 0.00 | 0.00 | 0.00 | 35 | 1012.6 |
| 20260830203107 | 33 | 190 | 1.6 | 11.3 | 0.00 | 0.00 | 0.00 | 34 | 1010.6 |
| 20260830203036 | 32 | 190 | 1.6 | 11.3 | 0.00 | 0.00 | 0.00 | 35 | 1012.6 |
| 20260830202530 | 33 | 190 | 4.8 | 12.9 | 0.00 | 0.00 | 0.00 | 34 | 1012.7 |
| 20260830202030 | 33 | 190 | 3.2 | 12.9 | 0.00 | 0.00 | 0.00 | 34 | 1012.8 |
| 20260830201607 | 33 | 190 | 3.2 | 16.1 | 0.00 | 0.00 | 0.00 | 34 | 1010.8 |
| 20260830201527 | 32 | 190 | 1.6 | 12.9 | 0.00 | 0.00 | 0.00 | 35 | 1012.9 |
| 20260830201029 | 32 | 190 | 3.2 | 16.1 | 0.00 | 0.00 | 0.00 | 36 | 1013.0 |
| 20260830200526 | 32 | 190 | 3.2 | 16.1 | 0.00 | 0.00 | 0.00 | 36 | 1013.1 |
| 20260830200047 | 32 | 190 | 4.8 | 11.3 | 0.00 | 0.00 | 0.00 | 36 | 1013.2 |
| 20260830195525 | 32 | 190 | 0.0 | 14.5 | 0.00 | 0.00 | 0.00 | 36 | 1013.3 |
| 20260830195024 | 32 | 190 | 6.4 | 14.5 | 0.00 | 0.00 | 0.00 | 37 | 1013.5 |
| 20260830194609 | 32 | 190 | 3.2 | 9.7 | 0.00 | 0.00 | 0.00 | 36 | 1011.5 |
| 20260830194523 | 32 | 190 | 4.8 | 8.0 | 0.00 | 0.00 | 0.00 | 36 | 1013.6 |
| 20260830194023 | 32 | 190 | 1.6 | 9.7 | 0.00 | 0.00 | 0.00 | 36 | 1013.6 |
| 20260830193519 | 32 | 190 | 3.2 | 12.9 | 0.00 | 0.00 | 0.00 | 36 | 1013.8 |
| 20260830193106 | 32 | 0 | 4.8 | 12.9 | 0.00 | 0.00 | 0.00 | 37 | 1011.7 |
| 20260830193020 | 32 | 190 | 3.2 | 12.9 | 0.00 | 0.00 | 0.00 | 37 | 1014.0 |
| 20260830192517 | 32 | 190 | 3.2 | 9.7 | 0.00 | 0.00 | 0.00 | 37 | 1014.1 |
| 20260830192018 | 32 | 190 | 4.8 | 16.1 | 0.00 | 0.00 | 0.00 | 35 | 1014.3 |
| 20260830191602 | 32 | 190 | 6.4 | 16.1 | 0.00 | 0.00 | 0.00 | 36 | 1012.0 |
| 20260830191516 | 32 | 190 | 6.4 | 16.1 | 0.00 | 0.00 | 0.00 | 37 | 1014.3 |
| 20260830191017 | 32 | 190 | 3.2 | 6.4 | 0.00 | 0.00 | 0.00 | 35 | 1014.5 |
| 20260830190514 | 32 | 190 | 0.0 | 9.7 | 0.00 | 0.00 | 0.00 | 33 | 1014.6 |
| 20260830190122 | 32 | 190 | 4.8 | 9.7 | 0.00 | 0.00 | 0.00 | 32 | 1012.2 |
| 20260830190014 | 32 | 190 | 3.2 | 9.7 | 0.00 | 0.00 | 0.00 | 33 | 1014.8 |
| 20260830185514 | 32 | 190 | 0.0 | 8.0 | 0.00 | 0.00 | 0.00 | 33 | 1014.8 |
| 20260830185011 | 32 | 190 | 1.6 | 9.7 | 0.00 | 0.00 | 0.00 | 35 | 1014.8 |
| 20260830184613 | 31 | 190 | 3.2 | 9.7 | 0.00 | 0.00 | 0.00 | 33 | 1012.4 |
| 20260830184517 | 31 | 190 | 1.6 | 9.7 | 0.00 | 0.00 | 0.00 | 34 | 1014.9 |
| 20260830184008 | 32 | 190 | 1.6 | 12.9 | 0.00 | 0.00 | 0.00 | 33 | 1014.9 |
| 20260830183509 | 31 | 190 | 6.4 | 12.9 | 0.00 | 0.00 | 0.00 | 34 | 1015.0 |
| 20260830183105 | 32 | 190 | 6.4 | 12.9 | 0.00 | 0.00 | 0.00 | 33 | 1012.6 |
| 20260830183007 | 32 | 190 | 4.8 | 12.9 | 0.00 | 0.00 | 0.00 | 34 | 1015.0 |
| 20260830182509 | 32 | 190 | 4.8 | 11.3 | 0.00 | 0.00 | 0.00 | 34 | 1015.2 |
| 20260830182006 | 31 | 190 | 1.6 | 11.3 | 0.00 | 0.00 | 0.00 | 35 | 1015.3 |
| 20260830181607 | 31 | 190 | 4.8 | 11.3 | 0.00 | 0.00 | 0.00 | 34 | 1012.9 |
| 20260830181505 | 31 | 190 | 6.4 | 11.3 | 0.00 | 0.00 | 0.00 | 34 | 1015.4 |
| 20260830181004 | 31 | 190 | 1.6 | 11.3 | 0.00 | 0.00 | 0.00 | 35 | 1015.3 |
| 20260830180503 | 31 | 190 | 0.0 | 8.0 | 0.00 | 0.00 | 0.00 | 35 | 1015.5 |
| 20260830180116 | 31 | 0 | 3.2 | 11.3 | 0.00 | 0.00 | 0.00 | 36 | 1013.1 |
| 20260830180001 | 31 | 190 | 1.6 | 11.3 | 0.00 | 0.00 | 0.00 | 35 | 1015.5 |
| 20260830175601 | 30 | 190 | 3.2 | 11.3 | 0.00 | 0.00 | 0.00 | 36 | 1015.6 |
| 20260830175100 | 30 | 190 | 3.2 | 12.9 | 0.00 | 0.00 | 0.00 | 36 | 1015.7 |
| 20260830174610 | 30 | 0 | 6.4 | 17.7 | 0.00 | 0.00 | 0.00 | 35 | 1013.3 |
| 20260830174602 | 30 | 190 | 1.6 | 12.9 | 0.00 | 0.00 | 0.00 | 36 | 1015.7 |
| 20260830174058 | 31 | 190 | 4.8 | 17.7 | 0.00 | 0.00 | 0.00 | 36 | 1015.7 |
| 20260830173601 | 30 | 190 | 3.2 | 12.9 | 0.00 | 0.00 | 0.00 | 37 | 1015.7 |
| 20260830173128 | 30 | 190 | 4.8 | 12.9 | 0.00 | 0.00 | 0.00 | 36 | 1013.5 |
| 20260830173106 | 30 | 190 | 3.2 | 12.9 | 0.00 | 0.00 | 0.00 | 36 | 1016.0 |